Location: G�migny
(47.9646°N, 1.6950°E)
Time: 07:30:25
(UTC+00:00)

Cosmos-2242 - Pass Details

Date: 23 October 2019
Orbit: 590 x 619 km, 82.5° (Epoch: 13 November)

Event Time Altitude Azimuth Distance (km) Brightness Sun altitude
Rises 18:33:55 0° 172° (S) 2,867 6.4 -17.9°
Reaches altitude 10° 18:36:11 10° 167° (SSE) 1,963 5.5 -18.3°
Maximum altitude 18:40:20 47° 94° (E) 811 3.2 -19.0°
Drops below altitude 10° 18:44:30 10° 20° (NNE) 1,962 5.5 -19.7°
Sets 18:46:46 0° 15° (NNE) 2,865 6.4 -20.1°
